Weather reports worldwide

Advertisment
Geneve-Cointrin, Switzerland (6700): temperature & dewpoint: 21.06.2017 07:00:00 - 27.06.2017 07:00:00 (CEST)Geneve-Cointrin, Switzerland (6700): temperature 5cm: 21.06.2017 07:00:00 - 27.06.2017 07:00:00 (CEST)Geneve-Cointrin, Switzerland (6700): wind speed & gusts: 21.06.2017 07:00:00 - 27.06.2017 07:00:00 (CEST)Geneve-Cointrin, Switzerland (6700): wind direction: 21.06.2017 07:00:00 - 27.06.2017 07:00:00 (CEST)Geneve-Cointrin, Switzerland (6700): reduced air pressure: 21.06.2017 07:00:00 - 27.06.2017 07:00:00 (CEST)Geneve-Cointrin, Switzerland (6700): visibility: 21.06.2017 07:00:00 - 27.06.2017 07:00:00 (CEST)Geneve-Cointrin, Switzerland (6700): sunshine duration: 21.06.2017 07:00:00 - 27.06.2017 07:00:00 (CEST)Geneve-Cointrin, Switzerland (6700): precipitation: 21.06.2017 07:00:00 - 27.06.2017 07:00:00 (CEST)
Date & Time tt [°C] td [°C] tt 5cm [°C] ff [km/h] ff [kn] fx [km/h] fx [kn] dd ppp [hPa] vv [km] sd [min] rr [mm]
27.06.2017 07:00:00 - - - - - - - - - - - -
27.06.2017 06:00:00 16,8 16,4 15,5 5 3 7 4 W 1010,7 - 0 0,0
27.06.2017 05:00:00 17,1 16,3 16,1 4 2 10 6 WNW 1011,1 - 0 0,1
27.06.2017 04:00:00 17,5 16,5 17,0 6 3 9 5 SW 1011,5 - 0 0,2
27.06.2017 03:00:00 18,0 15,9 16,3 6 4 13 7 NNE 1011,6 - 0 0,0
27.06.2017 02:00:00 19,3 15,7 17,4 4 2 9 5 SW 1012,5 - 0 0,0
27.06.2017 01:00:00 18,6 17,9 17,8 3 2 18 10 S 1012,3 - 0 1,0
27.06.2017 00:00:00 21,0 16,9 19,8 12 7 21 12 SW 1012,2 - 0 0,0
26.06.2017 23:00:00 20,5 17,4 18,6 2 1 9 5 NE 1011,7 25 0 0,0
26.06.2017 22:00:00 21,9 16,8 20,1 4 2 9 5 WNW 1011,4 - 0 0,0
26.06.2017 21:00:00 22,0 17,4 20,5 6 3 14 7 W 1011,0 - 0 0,0
26.06.2017 20:00:00 22,8 16,6 21,4 9 5 20 11 WSW 1010,6 25 0 0,0
26.06.2017 19:00:00 23,7 14,2 23,7 3 1 9 5 N 1009,8 - 0 0,0
26.06.2017 18:00:00 24,4 15,2 23,9 4 2 13 7 NW 1009,8 - 0 0,0
26.06.2017 17:00:00 24,6 13,4 24,1 5 3 30 16 SSW 1010,5 35 0 0,0
26.06.2017 16:00:00 26,0 15,2 25,8 18 10 28 15 SW 1011,0 - 0 0,0
26.06.2017 15:00:00 25,5 14,4 28,6 5 3 13 7 SW 1010,8 - 0 0,0
26.06.2017 14:00:00 25,7 14,2 33,4 7 4 12 7 WNW 1011,2 50 16 0,0
26.06.2017 13:00:00 24,6 13,5 29,1 7 4 16 9 NNE 1011,9 - 3 0,0
26.06.2017 12:00:00 24,3 13,7 32,6 9 5 26 14 NE 1012,2 - 42 0,0
26.06.2017 11:00:00 23,2 13,4 29,4 16 8 27 15 NNE 1012,6 60 49 0,0
26.06.2017 10:00:00 21,8 13,8 26,9 11 6 17 9 ENE 1013,0 - 52 0,0
26.06.2017 09:00:00 20,4 14,2 26,6 5 3 11 6 ENE 1013,7 - 60 0,0
26.06.2017 08:00:00 18,9 13,6 23,4 5 3 10 6 NNE 1014,1 60 60 0,0
26.06.2017 07:00:00 16,3 13,6 16,9 3 2 9 5 N 1014,8 - 42 0,0
26.06.2017 06:00:00 14,6 12,5 11,7 4 2 7 4 NNW 1015,3 - 0 0,0
26.06.2017 05:00:00 14,9 13,0 11,7 1 1 5 3 E 1015,4 - 0 0,0
26.06.2017 04:00:00 15,4 12,5 12,0 3 2 8 4 NNW 1015,6 - 0 0,0
26.06.2017 03:00:00 16,0 13,2 12,7 1 1 10 5 NNE 1016,1 - 0 0,0
26.06.2017 02:00:00 16,5 12,8 12,9 3 2 5 3 N 1016,2 - 0 0,0
26.06.2017 01:00:00 17,7 12,9 13,6 3 1 7 4 N 1016,1 - 0 0,0
26.06.2017 00:00:00 18,8 12,6 14,6 1 0 10 5 N 1015,9 - 0 0,0
25.06.2017 23:00:00 20,5 12,2 15,4 3 2 8 5 SW 1015,4 40 0 0,0
25.06.2017 22:00:00 22,1 11,9 17,3 2 1 12 6 N 1014,8 - 0 0,0
25.06.2017 21:00:00 23,7 12,4 22,4 5 3 15 8 NW 1014,3 - 51 0,0
25.06.2017 20:00:00 25,6 11,6 28,1 6 3 14 8 N 1014,0 45 60 0,0
25.06.2017 19:00:00 26,4 11,0 30,4 8 4 19 10 NNW 1014,0 - 60 0,0
25.06.2017 18:00:00 26,1 10,8 32,6 5 3 17 9 NW 1014,2 - 60 0,0
25.06.2017 17:00:00 26,1 11,1 33,2 4 2 14 8 NNE 1014,8 40 32 0,0
25.06.2017 16:00:00 27,1 12,0 29,7 8 5 23 12 W 1014,9 - 30 0,0
25.06.2017 15:00:00 26,6 10,9 32,8 12 6 22 12 SW 1015,0 - 45 0,0
25.06.2017 14:00:00 24,4 12,2 32,3 9 5 42 23 SW 1015,9 35 57 0,0
25.06.2017 13:00:00 23,6 12,5 32,4 7 4 27 14 SW 1016,4 - 53 0,0
25.06.2017 12:00:00 22,8 12,3 31,3 8 4 16 9 W 1017,0 - 42 0,0
25.06.2017 11:00:00 21,6 12,8 23,7 4 2 8 5 WSW 1017,8 25 0 0,0
25.06.2017 10:00:00 20,7 14,5 21,2 3 1 8 5 WNW 1017,8 - 0 0,0
25.06.2017 09:00:00 20,6 15,2 24,1 4 2 17 9 ESE 1017,2 - 11 0,0
25.06.2017 08:00:00 19,0 17,3 18,4 5 3 16 9 E 1017,0 25 0 0,0
25.06.2017 07:00:00 18,4 16,9 17,7 6 3 12 6 WSW 1016,5 - 0 0,0
25.06.2017 06:00:00 18,5 16,9 17,5 2 1 8 4 WSW 1016,7 - 0 0,0
25.06.2017 05:00:00 18,3 17,0 17,6 6 3 13 7 WSW 1017,0 - 0 0,0
25.06.2017 04:00:00 17,6 17,1 16,9 5 3 9 5 SW 1017,6 - 0 0,0
25.06.2017 03:00:00 18,2 17,5 17,5 4 2 12 7 NW 1017,7 - 0 0,1
25.06.2017 02:00:00 18,1 17,6 17,5 2 1 13 7 ESE 1017,7 - 0 0,7
25.06.2017 01:00:00 18,5 16,8 17,4 5 3 19 11 S 1017,4 - 0 0,9
25.06.2017 00:00:00 23,7 10,7 21,9 20 11 35 19 S 1015,9 - 0 0,0
24.06.2017 23:00:00 23,5 11,8 20,0 1 1 6 4 W 1015,2 40 0 0,0
24.06.2017 22:00:00 24,5 9,8 21,1 4 2 13 7 WNW 1014,5 - 0 0,0
24.06.2017 21:00:00 25,6 11,0 24,0 5 3 16 9 WNW 1014,3 - 0 0,0
24.06.2017 20:00:00 27,6 11,5 26,6 5 3 15 8 NW 1014,2 40 9 0,0
24.06.2017 19:00:00 30,0 12,7 32,5 13 7 23 13 WSW 1013,6 - 60 0,0
24.06.2017 18:00:00 30,5 12,7 34,2 14 7 28 15 WSW 1013,7 - 60 0,0
24.06.2017 17:00:00 30,0 11,9 35,3 13 7 32 18 SW 1014,2 45 60 0,0
24.06.2017 16:00:00 30,4 13,7 35,5 20 11 34 18 SSW 1014,7 - 60 0,0
24.06.2017 15:00:00 29,3 15,4 35,4 18 10 34 19 WSW 1015,5 - 60 0,0
24.06.2017 14:00:00 28,7 16,6 35,4 19 11 32 17 SSW 1016,1 - 60 0,0
24.06.2017 13:00:00 28,0 16,4 35,4 18 10 34 18 S 1016,5 - 41 0,0
24.06.2017 12:00:00 26,0 16,3 29,5 19 11 32 17 SSW 1017,3 - 8 0,0
24.06.2017 11:00:00 25,2 17,8 28,4 13 7 23 13 S 1017,6 18 0 0,0
24.06.2017 10:00:00 24,2 17,4 26,5 8 4 22 12 S 1017,9 - 0 0,0
24.06.2017 09:00:00 23,4 17,0 24,0 17 9 30 16 SSW 1018,3 - 8 0,0
24.06.2017 08:00:00 23,6 17,5 25,2 14 8 23 12 SW 1017,9 17 43 0,0
24.06.2017 07:00:00 22,1 17,5 20,9 7 4 17 9 W 1018,0 - 2 0,0
24.06.2017 06:00:00 20,9 17,5 19,7 7 4 13 7 W 1018,2 - 0 0,0
24.06.2017 05:00:00 21,5 17,5 19,9 6 3 14 8 W 1018,2 - 0 0,0
24.06.2017 04:00:00 22,2 18,0 19,0 2 1 8 4 WSW 1018,2 - 0 0,0
24.06.2017 03:00:00 22,6 18,9 19,9 6 3 10 6 W 1018,2 - 0 0,0
24.06.2017 02:00:00 23,5 18,0 20,3 4 2 6 3 WSW 1018,0 - 0 0,0
24.06.2017 01:00:00 24,3 17,9 21,6 2 1 6 3 W 1017,8 - 0 0,0
24.06.2017 00:00:00 24,7 18,2 21,8 1 1 6 4 NE 1017,4 - 0 0,0
23.06.2017 23:00:00 24,8 19,1 21,4 4 2 14 8 N 1017,0 20 0 0,0
23.06.2017 22:00:00 26,5 19,1 22,7 7 4 13 7 ENE 1016,3 - 0 0,0
23.06.2017 21:00:00 28,4 18,7 26,6 4 2 20 11 N 1015,9 - 3 0,0
23.06.2017 20:00:00 30,5 18,9 30,2 9 5 24 13 WNW 1015,5 20 52 0,0
23.06.2017 19:00:00 32,1 18,2 33,8 9 5 23 12 NW 1014,8 - 60 0,0
23.06.2017 18:00:00 32,5 15,9 36,4 10 5 23 13 W 1014,8 - 59 0,0
23.06.2017 17:00:00 33,2 15,5 37,5 14 8 31 17 WSW 1015,0 25 57 0,0
23.06.2017 16:00:00 34,1 16,8 38,7 12 7 34 18 W 1015,1 - 46 0,0
23.06.2017 15:00:00 33,9 16,9 40,0 18 10 35 19 SW 1015,4 - 57 0,0
23.06.2017 14:00:00 33,7 16,2 38,9 20 11 32 18 SSW 1015,6 22 60 0,0
23.06.2017 13:00:00 32,8 15,8 38,5 20 11 29 16 SSW 1016,1 - 60 0,0
23.06.2017 12:00:00 30,9 18,2 36,5 16 9 26 14 SW 1016,7 - 60 0,0
23.06.2017 11:00:00 28,6 18,9 34,5 12 6 22 12 WSW 1017,5 22 42 0,0
23.06.2017 10:00:00 27,0 19,2 30,7 11 6 16 9 SW 1017,6 - 9 0,0
23.06.2017 09:00:00 26,0 19,0 30,9 5 3 13 7 SW 1017,7 - 24 0,0
23.06.2017 08:00:00 24,4 18,3 27,9 4 2 9 5 N 1017,3 25 40 0,0
23.06.2017 07:00:00 22,4 18,9 20,5 3 2 9 5 W 1017,4 - 2 0,0
23.06.2017 06:00:00 20,3 18,3 18,5 6 3 11 6 WNW 1017,6 - 0 0,0
23.06.2017 05:00:00 21,6 18,4 18,2 2 1 6 4 WNW 1017,3 - 0 0,0
23.06.2017 04:00:00 21,8 18,5 18,3 4 2 8 5 NNW 1017,3 - 0 0,0
23.06.2017 03:00:00 22,3 18,6 19,5 2 1 9 5 NNE 1017,1 - 0 0,0
23.06.2017 02:00:00 24,4 18,5 21,8 8 4 14 8 SW 1016,7 - 0 0,0
23.06.2017 01:00:00 25,0 18,6 23,1 10 5 18 10 WSW 1016,5 - 0 0,0
23.06.2017 00:00:00 26,0 18,3 22,3 8 5 18 10 SW 1016,1 - 0 0,0
22.06.2017 23:00:00 26,1 18,4 23,1 7 4 14 7 WSW 1015,7 40 0 0,0
22.06.2017 22:00:00 28,2 18,4 25,0 9 5 16 9 WSW 1014,7 - 0 0,0
22.06.2017 21:00:00 29,9 18,5 - 9 5 30 16 WSW 1013,9 - 21 0,0
22.06.2017 20:00:00 31,1 18,6 31,2 21 11 32 18 SSW 1013,6 35 42 0,0
22.06.2017 19:00:00 32,6 16,9 34,8 23 12 37 20 SSW 1012,9 - 60 0,0
22.06.2017 18:00:00 33,9 16,7 36,9 24 13 34 18 SSW 1012,8 - 60 0,0
22.06.2017 17:00:00 33,6 17,4 38,0 22 12 35 19 S 1013,2 35 60 0,0
22.06.2017 16:00:00 33,3 17,2 38,3 16 9 34 18 SSW 1013,4 - 60 0,0
22.06.2017 15:00:00 32,9 16,4 39,1 14 8 29 16 SW 1013,8 - 60 0,0
22.06.2017 14:00:00 32,6 17,3 38,8 14 8 23 13 SSW 1014,2 35 60 0,0
22.06.2017 13:00:00 31,0 18,7 37,8 10 5 33 18 S 1015,0 - 60 0,0
22.06.2017 12:00:00 29,7 17,6 36,5 11 6 20 11 SSW 1015,5 - 60 0,0
22.06.2017 11:00:00 27,8 17,2 35,6 8 4 14 7 W 1015,9 40 60 0,0
22.06.2017 10:00:00 25,9 17,7 33,0 3 2 9 5 SW 1016,5 - 60 0,0
22.06.2017 09:00:00 24,2 16,7 30,0 2 1 6 4 W 1016,6 - 60 0,0
22.06.2017 08:00:00 22,1 17,8 26,4 1 1 6 4 NE 1016,7 45 60 0,0
22.06.2017 07:00:00 19,9 15,8 19,6 3 2 8 5 NW 1017,0 - 36 0,0
22.06.2017 06:00:00 18,8 14,8 15,6 3 2 5 3 SW 1017,1 - 0 0,0
22.06.2017 05:00:00 18,5 14,9 15,5 4 2 6 4 NW 1016,9 - 0 0,0
22.06.2017 04:00:00 19,4 14,6 16,4 4 2 9 5 WSW 1016,6 - 0 0,0
22.06.2017 03:00:00 20,4 14,9 17,1 4 2 8 5 W 1016,4 - 0 0,0
22.06.2017 02:00:00 21,1 14,6 17,8 1 1 8 5 WSW 1016,2 - 0 0,0
22.06.2017 01:00:00 21,9 15,5 18,0 2 1 5 3 NNW 1016,2 - 0 0,0
22.06.2017 00:00:00 23,0 15,5 19,2 1 1 6 4 ESE 1015,8 - 0 0,0
21.06.2017 23:00:00 24,5 15,6 20,5 3 2 10 5 W 1015,3 35 0 0,0
21.06.2017 22:00:00 26,4 16,2 - 3 2 10 5 WNW 1014,5 - 0 0,0
21.06.2017 21:00:00 28,0 18,2 24,5 6 3 8 5 NW 1013,5 - 24 0,0
21.06.2017 20:00:00 29,7 17,5 29,1 7 4 13 7 NNE 1012,9 30 59 0,0
21.06.2017 19:00:00 31,3 15,4 33,9 10 5 13 7 NE 1012,1 - 60 0,0
21.06.2017 18:00:00 31,5 16,4 36,2 7 4 16 8 E 1012,0 - 60 0,0
21.06.2017 17:00:00 31,5 15,8 37,5 9 5 18 10 NE 1012,2 25 60 0,0
21.06.2017 16:00:00 31,4 16,2 39,1 5 3 18 10 N 1012,6 - 57 0,0
21.06.2017 15:00:00 28,3 17,3 28,8 6 4 18 10 N 1013,9 - 2 0,0
21.06.2017 14:00:00 30,6 15,7 37,8 11 6 19 11 E 1013,8 27 60 0,0
21.06.2017 13:00:00 29,8 16,1 38,4 3 2 13 7 ENE 1014,6 - 60 0,0
21.06.2017 12:00:00 27,9 15,8 35,7 7 4 13 7 NE 1015,1 - 60 0,0
21.06.2017 11:00:00 26,9 16,5 33,0 4 2 11 6 NNE 1015,4 30 57 0,0
21.06.2017 10:00:00 25,4 15,6 32,7 4 2 16 9 NE 1015,7 - 60 0,0
21.06.2017 09:00:00 24,3 17,1 30,4 4 2 8 4 NNE 1016,0 - 60 0,0
21.06.2017 08:00:00 22,3 16,4 25,6 6 3 8 5 NE 1016,1 30 60 0,0
21.06.2017 07:00:00 20,5 16,2 18,9 2 1 9 5 WSW 1016,2 - 32 0,0

tt = temperature
td = dewpoint
tt 5cm = temperature 5cm
ff = wind speed
fx = gusts
dd = wind direction
ppp = reduced air pressure
vv = visibility
sd = sunshine duration
rr = precipitation

Next stations